�N����,����,�~����,�C��,���x,�C��,����,���ϕ���,�ő�u�ԕ���,�ő厞����,���˗�,�I�_���x,�n�����x,�ő啗���N��,DTYPE
"21/11/07","00:10",0.0,12.0,79.3,1015.9,245.9,0.5,1.2,320.5,0.00,8.6,15.3,"00:09:56",1
"21/11/07","00:20",0.0,11.7,80.3,1015.9,322.5,1.6,2.5,335.0,0.00,8.5,15.2,"00:12:42",1
"21/11/07","00:30",0.0,11.6,81.1,1015.9,299.8,1.1,1.7,320.2,0.00,8.5,15.3,"00:28:04",1
"21/11/07","00:40",0.0,11.6,81.9,1016.1,300.3,1.3,2.1,308.9,0.00,8.7,15.4,"00:39:24",1
"21/11/07","00:50",0.0,11.8,82.3,1015.6,293.8,1.2,2.2,311.6,0.00,8.9,15.2,"00:40:08",1
"21/11/07","01:00",0.0,11.8,82.7,1015.9,286.4,1.2,1.7,306.8,0.00,9.0,15.4,"00:56:28",1
"21/11/07","01:10",0.0,11.9,83.1,1015.9,307.9,1.5,2.4,339.7,0.00,9.2,15.2,"01:05:34",1
"21/11/07","01:20",0.0,12.0,83.1,1015.9,303.0,1.6,2.5,306.8,0.00,9.3,15.4,"01:14:38",1
"21/11/07","01:30",0.0,12.1,82.9,1015.9,306.2,1.5,2.2,318.3,0.00,9.3,15.2,"01:20:40",1
"21/11/07","01:40",0.0,12.2,82.7,1016.1,274.6,1.1,2.2,259.9,0.00,9.4,15.1,"01:36:56",1
"21/11/07","01:50",0.0,12.3,82.4,1016.1,285.5,1.3,2.4,328.4,0.00,9.4,15.3,"01:41:24",1
"21/11/07","02:00",0.0,12.3,82.2,1015.9,296.3,1.1,2.0,307.6,0.00,9.4,15.3,"01:54:22",1
"21/11/07","02:10",0.0,12.3,82.0,1016.1,282.3,1.0,1.9,301.7,0.00,9.4,15.2,"02:02:30",1
"21/11/07","02:20",0.0,12.2,81.7,1015.9,303.6,1.3,2.6,313.4,0.00,9.2,15.1,"02:14:20",1
"21/11/07","02:30",0.0,12.2,81.6,1015.9,300.4,1.1,2.6,326.0,0.00,9.2,15.2,"02:21:42",1
"21/11/07","02:40",0.0,12.1,81.8,1015.6,295.1,1.2,2.2,318.9,0.00,9.1,15.0,"02:38:58",1
"21/11/07","02:50",0.0,12.1,82.1,1015.6,304.9,1.7,3.7,328.9,0.00,9.2,15.2,"02:49:36",1
"21/11/07","03:00",0.0,12.2,82.3,1015.4,308.1,2.1,3.5,318.0,0.00,9.3,15.1,"02:50:16",1
"21/11/07","03:10",0.0,12.3,82.2,1015.6,306.6,1.6,2.5,319.8,0.00,9.4,15.1,"03:08:54",1
"21/11/07","03:20",0.0,12.5,82.1,1015.2,313.5,2.0,3.1,330.0,0.00,9.6,15.1,"03:12:22",1
"21/11/07","03:30",0.0,12.4,82.1,1015.4,318.3,1.7,2.5,345.6,0.00,9.5,15.2,"03:27:38",1
"21/11/07","03:40",0.0,12.4,82.3,1015.9,306.8,1.7,2.8,319.0,0.00,9.5,15.2,"03:32:10",1
"21/11/07","03:50",0.0,12.4,82.5,1015.6,305.0,1.7,2.6,336.3,0.00,9.5,15.1,"03:42:02",1
"21/11/07","04:00",0.0,12.4,82.6,1015.6,304.6,1.6,2.8,333.0,0.00,9.6,15.2,"03:53:44",1
"21/11/07","04:10",0.0,12.4,82.7,1015.4,310.6,2.3,3.6,311.6,0.00,9.6,15.2,"04:06:52",1
"21/11/07","04:20",0.0,12.5,82.6,1015.9,318.2,2.0,3.6,322.1,0.00,9.7,14.9,"04:10:28",1
"21/11/07","04:30",0.0,12.5,82.6,1015.4,318.5,2.7,5.0,334.7,0.00,9.7,15.1,"04:27:12",1
"21/11/07","04:40",0.0,12.4,82.6,1015.4,312.4,2.5,3.7,334.9,0.00,9.6,15.0,"04:31:52",1
"21/11/07","04:50",0.0,12.3,82.6,1015.6,310.7,1.7,3.6,336.5,0.00,9.5,15.0,"04:48:02",1
"21/11/07","05:00",0.0,12.3,82.5,1015.6,324.3,2.5,4.0,324.3,0.00,9.4,14.9,"04:57:12",1
"21/11/07","05:10",0.0,12.3,82.5,1015.9,313.4,1.8,2.8,337.5,0.00,9.4,15.0,"05:02:04",1
"21/11/07","05:20",0.0,12.3,82.5,1016.1,296.9,1.1,2.8,309.2,0.00,9.4,15.1,"05:11:46",1
"21/11/07","05:30",0.0,12.2,82.6,1015.9,288.6,1.1,1.4,319.0,0.00,9.4,15.1,"05:23:06",1
"21/11/07","05:40",0.0,12.0,82.8,1015.9,296.5,1.2,2.0,308.7,0.00,9.2,15.0,"05:34:16",1
"21/11/07","05:50",0.0,11.7,83.1,1015.6,287.4,1.2,1.8,276.9,0.00,9.0,15.2,"05:45:58",1
"21/11/07","06:00",0.0,11.4,83.6,1015.6,299.7,1.2,2.2,320.5,0.00,8.8,14.8,"05:59:38",1
"21/11/07","06:10",0.0,11.3,84.4,1015.6,311.0,1.6,2.5,307.7,0.00,8.8,15.1,"06:00:32",1
"21/11/07","06:20",0.0,11.2,85.1,1015.6,303.3,1.6,2.7,318.6,0.00,8.8,15.0,"06:18:44",1
"21/11/07","06:30",0.0,11.0,85.5,1016.1,291.9,1.5,3.2,309.6,0.00,8.7,14.9,"06:22:24",1
"21/11/07","06:40",0.0,10.9,86.0,1015.9,303.1,1.5,2.0,302.2,0.00,8.7,14.9,"06:32:24",1
"21/11/07","06:50",0.0,10.8,86.4,1015.9,303.7,1.5,2.7,325.9,0.00,8.7,15.0,"06:49:54",1
"21/11/07","07:00",0.0,10.9,86.7,1016.1,309.8,1.7,3.4,331.3,0.00,8.8,15.1,"06:50:48",1
"21/11/07","07:10",0.0,11.0,87.0,1015.9,316.7,1.5,2.5,309.8,0.00,9.0,14.9,"07:00:56",1
"21/11/07","07:20",0.0,11.1,87.2,1015.9,301.5,1.6,3.1,336.5,0.00,9.1,15.0,"07:14:44",1
"21/11/07","07:30",0.0,11.5,87.2,1016.1,300.4,1.6,2.6,318.9,0.00,9.5,15.0,"07:23:12",1
"21/11/07","07:40",0.0,11.8,87.1,1016.4,298.9,1.3,2.4,301.9,0.01,9.8,14.7,"07:31:44",1
"21/11/07","07:50",0.0,12.3,86.6,1016.8,314.3,1.7,3.3,327.1,0.03,10.2,14.9,"07:47:52",1
"21/11/07","08:00",0.0,13.1,85.8,1017.1,321.3,1.0,2.6,324.5,0.06,10.8,14.8,"07:52:56",1
"21/11/07","08:10",0.0,13.9,84.0,1017.3,343.8,0.8,2.1,322.3,0.07,11.3,14.8,"08:04:32",1
"21/11/07","08:20",0.0,14.2,81.8,1017.3,324.1,1.2,2.4,334.1,0.07,11.2,14.7,"08:17:44",1
"21/11/07","08:30",0.0,13.9,80.2,1017.5,282.8,1.1,2.8,323.6,0.03,10.6,14.9,"08:28:56",1
"21/11/07","08:40",0.0,14.5,80.1,1017.3,291.4,1.0,2.1,336.3,0.14,11.2,15.0,"08:30:56",1
"21/11/07","08:50",0.0,15.0,79.1,1017.5,284.1,1.0,2.5,272.0,0.14,11.5,14.8,"08:40:24",1
"21/11/07","09:00",0.0,15.9,77.8,1017.5,288.3,1.2,3.1,320.7,0.19,12.1,14.8,"08:52:56",1
"21/11/07","09:10",0.0,16.4,75.6,1017.5,276.0,1.3,2.2,256.3,0.18,12.1,14.8,"09:07:52",1
"21/11/07","09:20",0.0,16.9,73.6,1017.3,272.1,1.3,2.4,247.1,0.23,12.2,14.7,"09:11:36",1
"21/11/07","09:30",0.0,17.5,71.2,1017.5,262.9,1.3,2.7,245.0,0.26,12.3,14.7,"09:26:00",1
"21/11/07","09:40",0.0,18.3,68.0,1017.3,262.3,1.1,2.0,248.1,0.28,12.3,15.0,"09:35:12",1
"21/11/07","09:50",0.0,18.9,65.0,1017.3,233.9,1.2,2.2,194.7,0.30,12.2,14.9,"09:44:32",1
"21/11/07","10:00",0.0,19.3,63.5,1017.1,249.1,1.2,2.8,241.4,0.32,12.2,15.0,"09:59:44",1
"21/11/07","10:10",0.0,19.6,61.9,1017.3,211.4,1.5,3.6,238.9,0.33,12.1,15.0,"10:05:04",1
"21/11/07","10:20",0.0,19.6,60.9,1017.3,216.2,1.7,2.9,206.1,0.33,11.9,15.0,"10:10:56",1
"21/11/07","10:30",0.0,19.7,59.8,1017.1,212.1,1.7,3.4,231.7,0.33,11.7,15.2,"10:23:28",1
"21/11/07","10:40",0.0,20.9,58.6,1016.6,184.0,1.5,3.2,121.8,0.49,12.5,15.3,"10:32:48",1
"21/11/07","10:50",0.0,21.3,57.3,1016.6,182.2,1.5,2.7,216.6,0.46,12.6,15.2,"10:40:08",1
"21/11/07","11:00",0.0,21.9,57.4,1016.1,161.1,1.3,2.5,201.5,0.51,13.2,15.3,"10:51:12",1
"21/11/07","11:10",0.0,21.4,55.0,1015.9,150.2,1.5,3.5,207.6,0.39,12.0,15.5,"11:05:36",1
"21/11/07","11:20",0.0,20.6,56.4,1015.9,124.8,1.1,3.1,100.5,0.22,11.7,15.5,"11:15:52",1
"21/11/07","11:30",0.0,20.1,57.2,1015.6,152.1,1.3,3.3,229.9,0.22,11.4,15.8,"11:20:16",1
"21/11/07","11:40",0.0,20.7,56.8,1015.6,131.7,0.8,2.0,223.5,0.31,11.9,15.8,"11:30:40",1
"21/11/07","11:50",0.0,21.0,56.1,1015.6,142.6,1.2,2.4,197.1,0.33,12.0,16.0,"11:45:04",1
"21/11/07","12:00",0.0,21.1,55.0,1014.9,152.5,1.2,3.1,119.3,0.32,11.8,15.8,"11:58:56",1
"21/11/07","12:10",0.0,21.0,56.2,1015.2,156.9,1.6,3.6,123.0,0.38,12.0,16.0,"12:08:48",1
"21/11/07","12:20",0.0,21.3,55.9,1014.9,138.6,1.6,4.1,126.4,0.38,12.2,16.0,"12:18:32",1
"21/11/07","12:30",0.0,21.6,54.4,1014.7,124.9,1.5,3.1,108.7,0.40,12.1,15.9,"12:22:40",1
"21/11/07","12:40",0.0,21.4,54.7,1014.9,157.4,1.7,3.7,174.8,0.38,12.0,16.3,"12:39:36",1
"21/11/07","12:50",0.0,21.4,54.7,1014.5,135.1,1.5,4.0,101.3,0.32,12.0,16.5,"12:42:24",1
"21/11/07","13:00",0.0,20.8,56.6,1014.2,80.3,1.1,3.7,105.5,0.16,11.9,16.4,"12:59:04",1
"21/11/07","13:10",0.0,20.7,56.2,1014.5,100.7,1.1,2.8,115.5,0.21,11.7,16.5,"13:00:48",1
"21/11/07","13:20",0.0,20.7,56.8,1014.5,59.6,1.0,2.7,102.6,0.19,11.9,16.7,"13:15:52",1
"21/11/07","13:30",0.0,22.0,54.8,1014.2,87.6,1.2,3.4,11.5,0.42,12.5,16.5,"13:28:16",1
"21/11/07","13:40",0.0,22.5,53.5,1014.2,110.1,1.5,3.9,107.1,0.42,12.6,16.7,"13:30:56",1
"21/11/07","13:50",0.0,22.6,53.1,1014.0,117.5,1.6,4.1,120.9,0.38,12.6,16.7,"13:45:28",1
"21/11/07","14:00",0.0,22.6,52.6,1014.2,87.0,1.2,3.7,188.4,0.34,12.5,16.8,"13:58:08",1
"21/11/07","14:10",0.0,22.9,51.9,1014.2,97.2,1.1,2.9,63.4,0.33,12.5,16.7,"14:07:12",1
"21/11/07","14:20",0.0,22.5,51.1,1014.0,140.3,1.2,2.8,131.9,0.23,11.9,17.0,"14:18:40",1
"21/11/07","14:30",0.0,21.9,51.9,1014.0,129.2,1.6,4.7,145.5,0.18,11.6,17.1,"14:24:24",1
"21/11/07","14:40",0.0,21.6,52.4,1014.2,85.5,1.7,3.5,113.7,0.13,11.5,17.1,"14:39:04",1
"21/11/07","14:50",0.0,21.9,53.4,1014.5,134.0,1.0,3.5,124.4,0.18,12.1,17.2,"14:45:28",1
"21/11/07","15:00",0.0,21.3,52.8,1014.5,93.4,1.2,3.1,83.2,0.06,11.3,17.4,"14:52:24",1
"21/11/07","15:10",0.0,20.9,54.4,1014.2,83.8,1.1,2.6,67.1,0.04,11.4,17.1,"15:00:02",1
"21/11/07","15:20",0.0,20.9,55.1,1014.7,111.6,1.2,2.4,108.6,0.06,11.6,17.3,"15:18:24",1
"21/11/07","15:30",0.0,21.7,53.7,1014.9,105.8,1.2,3.1,115.5,0.16,12.0,17.3,"15:28:32",1
"21/11/07","15:40",0.0,22.0,53.3,1014.5,181.7,1.1,2.5,133.7,0.15,12.1,17.3,"15:33:44",1
"21/11/07","15:50",0.0,21.8,53.6,1014.7,180.6,1.3,3.3,141.2,0.11,12.0,17.2,"15:41:52",1
"21/11/07","16:00",0.0,21.5,54.5,1014.7,160.4,1.2,2.7,124.8,0.09,12.0,17.4,"15:52:40",1
"21/11/07","16:10",0.0,21.1,53.6,1014.7,157.6,1.2,3.2,149.6,0.06,11.4,17.3,"16:08:36",1
"21/11/07","16:20",0.0,20.8,53.3,1014.9,96.2,1.2,4.3,113.4,0.04,11.0,17.4,"16:14:32",1
"21/11/07","16:30",0.0,20.4,52.6,1014.7,89.0,1.5,3.3,114.7,0.02,10.4,17.3,"16:21:28",1
"21/11/07","16:40",0.0,20.1,54.5,1014.9,108.1,1.3,3.6,127.0,0.01,10.7,17.4,"16:39:04",1
"21/11/07","16:50",0.0,19.7,54.3,1015.2,67.6,1.1,2.9,110.8,0.00,10.3,17.3,"16:45:12",1
"21/11/07","17:00",0.0,19.3,55.3,1015.6,90.9,1.1,2.2,119.4,0.00,10.2,17.3,"16:51:52",1
"21/11/07","17:10",0.0,18.9,56.1,1015.4,95.7,0.7,2.1,107.7,0.00,10.0,17.2,"17:02:48",1
"21/11/07","17:20",0.0,18.6,57.1,1015.4,23.8,0.6,1.8,9.7,0.00,10.0,17.2,"17:10:24",1
"21/11/07","17:30",0.0,18.1,58.9,1015.6,357.4,0.6,1.6,70.9,0.00,10.0,17.2,"17:22:48",1
"21/11/07","17:40",0.0,17.8,60.0,1015.4,15.2,0.5,1.4,34.4,0.00,10.0,17.2,"17:31:36",1
"21/11/07","17:50",0.0,17.2,62.1,1015.4,334.8,0.8,1.4,336.8,0.00,9.9,17.2,"17:46:40",1
"21/11/07","18:00",0.0,16.5,64.7,1016.1,334.5,1.0,1.6,341.8,0.00,9.9,17.2,"17:51:28",1
"21/11/07","18:10",0.0,15.6,66.5,1015.9,325.2,1.0,1.8,335.3,0.00,9.4,17.1,"18:00:08",1
"21/11/07","18:20",0.0,14.8,68.3,1015.9,316.9,1.0,1.2,331.5,0.00,9.1,17.2,"18:12:08",1
"21/11/07","18:30",0.0,14.0,69.8,1016.1,300.4,0.8,1.2,311.1,0.00,8.6,17.1,"18:26:48",1
"21/11/07","18:40",0.0,13.7,71.3,1015.6,288.6,0.8,1.2,268.5,0.00,8.6,16.9,"18:36:20",1
"21/11/07","18:50",0.0,13.5,72.5,1016.1,276.4,0.7,1.1,261.8,0.00,8.7,17.2,"18:40:08",1
"21/11/07","19:00",0.0,13.7,74.0,1016.4,300.8,0.6,1.4,253.3,0.00,9.2,17.0,"18:56:54",1
"21/11/07","19:10",0.0,13.4,75.2,1015.9,296.5,0.7,1.4,335.9,0.00,9.1,17.0,"19:03:12",1
"21/11/07","19:20",0.0,13.2,77.2,1015.9,312.4,1.1,1.9,335.0,0.00,9.3,16.6,"19:15:32",1
"21/11/07","19:30",0.0,13.0,79.2,1015.9,296.5,1.0,1.4,262.1,0.00,9.5,16.7,"19:29:36",1
"21/11/07","19:40",0.0,13.2,80.3,1015.9,310.5,0.7,1.6,311.1,0.00,9.9,16.8,"19:33:34",1
"21/11/07","19:50",0.0,13.2,80.8,1016.4,321.9,1.2,1.7,308.2,0.00,10.0,16.7,"19:42:04",1
"21/11/07","20:00",0.0,12.8,81.4,1016.4,323.3,1.2,1.6,325.1,0.00,9.7,16.8,"19:50:54",1
"21/11/07","20:10",0.0,12.3,81.9,1016.1,308.2,1.0,1.4,312.0,0.00,9.3,16.7,"20:03:50",1
"21/11/07","20:20",0.0,12.2,82.7,1015.9,295.9,1.0,1.7,260.9,0.00,9.4,16.6,"20:18:06",1
"21/11/07","20:30",0.0,12.5,83.4,1016.1,301.9,1.0,1.8,309.1,0.00,9.8,16.4,"20:21:36",1
"21/11/07","20:40",0.0,12.6,84.1,1016.1,335.0,1.1,2.0,337.2,0.00,10.0,16.5,"20:38:58",1
"21/11/07","20:50",0.0,12.3,84.1,1016.4,303.4,1.0,1.9,317.7,0.00,9.7,16.5,"20:41:12",1
"21/11/07","21:00",0.0,11.6,84.5,1016.1,289.7,1.0,1.3,309.1,0.00,9.1,16.2,"20:53:24",1
"21/11/07","21:10",0.0,11.6,85.2,1016.1,294.1,1.1,1.6,263.8,0.00,9.2,16.3,"21:05:30",1
"21/11/07","21:20",0.0,12.1,85.9,1016.1,305.2,1.5,2.0,310.6,0.00,9.9,16.2,"21:18:26",1
"21/11/07","21:30",0.0,12.2,86.2,1016.4,326.4,1.5,1.9,332.3,0.00,10.0,16.1,"21:22:04",1
"21/11/07","21:40",0.0,12.0,86.6,1017.1,321.3,1.3,1.8,321.9,0.00,9.9,16.3,"21:30:08",1
"21/11/07","21:50",0.0,11.9,87.0,1016.4,320.4,1.3,1.9,324.4,0.00,9.8,15.9,"21:41:04",1
"21/11/07","22:00",0.0,11.7,87.4,1016.8,313.9,1.2,1.9,311.8,0.00,9.7,16.1,"21:52:00",1
"21/11/07","22:10",0.0,11.3,87.8,1016.6,299.1,1.0,1.2,308.9,0.00,9.4,16.2,"22:05:30",1
"21/11/07","22:20",0.0,11.7,88.2,1016.6,307.3,1.3,2.0,328.8,0.00,9.9,16.1,"22:16:22",1
"21/11/07","22:30",0.0,12.0,88.3,1016.6,318.3,1.2,2.1,329.3,0.00,10.2,16.0,"22:20:10",1
"21/11/07","22:40",0.0,11.9,88.6,1016.8,312.9,1.3,1.9,330.5,0.00,10.1,15.9,"22:38:38",1
"21/11/07","22:50",0.0,11.8,88.8,1016.6,314.0,1.2,1.9,319.4,0.00,10.1,16.0,"22:45:32",1
"21/11/07","23:00",0.0,12.0,89.1,1016.6,305.7,1.1,1.9,316.8,0.00,10.3,15.8,"22:56:24",1
"21/11/07","23:10",0.0,12.4,89.2,1016.8,303.1,1.0,1.2,322.6,0.00,10.7,15.9,"23:07:34",1
"21/11/07","23:20",0.0,12.6,89.1,1016.8,316.8,0.7,1.6,324.0,0.00,10.9,15.8,"23:18:54",1
"21/11/07","23:30",0.0,12.1,89.0,1016.8,321.0,1.3,2.1,323.9,0.00,10.4,16.0,"23:21:06",1
"21/11/07","23:40",0.0,11.4,89.1,1016.6,300.0,0.7,1.4,249.9,0.00,9.7,15.6,"23:31:14",1
"21/11/07","23:50",0.0,11.2,89.6,1016.6,318.7,1.3,2.2,315.1,0.00,9.6,15.7,"23:48:48",1
"21/11/07","24:00",0.0,11.2,90.1,1016.4,319.9,1.3,2.1,338.6,0.00,9.7,15.6,"23:52:58",1
